CZ-6A DEB, 56606

Orbit data source: Space-Track

CZ-6A DEB, 56606 is space debris in SSO originally from a launch on Fri, 11 Nov 2022 UTC launched from the Taiyaun Space Center, China (TSC). Debris objects in space refer to the collection of defunct objects orbiting the Earth. Examples of debris include non-operational satellites, rocket bodies, and fragments generated from explosions, collisions, or faulty payload assembly.

Loading next visibility...
Identifier
56606, 2022-151AEE
Orbit
SSO
Country
Flag of CNCN / PRC
Related business
Manufacturer
SAST
Mission
Spacecraft
Bus & Motor
Unknown
Mass
Unknown
Launch date (UTC)
2022-11-11 (3 years ago)
Launch vehicle
Unknown
Launch site
Taiyaun Space Center, China (TSC)
Object type
Payload
Rocket body
Debris
Shape & HBR
Unknown shape, 0.1 m
Radar Cross Section
Small (<0.1 m²)

Expand to show TLE details & history
Last TLE update: 1 day ago

TLE from 1 day ago
0 CZ-6A DEB
1 56606U 22151AEE 25348.72539747  .00000248  00000-0  16529-3 0  9990
2 56606  98.8398 346.5682 0046710 139.4262 221.0405 14.09410833135836
Epoch: 2025-12-14T17:24Z
TLE epoch observation values (Epoch: 2025-12-14T17:24:34.341Z)
Latitude
-0°
Longitude
1.79092°
Altitude
889.863 km
Speed
7.394 km/s
True Right ascension
23h 06m 16s
True Declination
0° 00' 00"
Sunlit
Object was in daylight at epoch
Visualization orbit readout
Latitude
Unknown
Longitude
Unknown
Altitude
Unknown
Speed
Unknown
Apparent Right ascension
Unknown
Apparent Declination
Unknown
Sunlit
N/A
Visualization observer readout
Local Sidereal Time
17:25:42
Azimuth
Unknown
Elevation
Unknown
Doppler factor
Unknown
Orbital elements
Apogee altitude
892.37 km
Perigee altitude
824.765 km
Semi-major axis
7,236.704 km
Eccentricity
0.00467
Inclination
98.8398°
RAAN
346.5682°
Arg. of periapsis
139.4262°
True anomaly
220.6906°
Mean anomaly
221.0405°
Eccentric anomaly
220.86539°
Mean motion
3.52559 °/min
Orbital period
102.11 mins
BSTAR
0.00016529
Loading maneuver chart data...
Computing Atmospheric mass density...
Loading historical data...
Loading historical data...
Loading historical data...
Loading historical data...
Loading historical data...
Loading historical data...
Loading historical data...

Documentation

Showing up to 5 results
|